Time,TemperatureF,DewpointF,PressureIn,WindDirection,WindDirectionDegrees,WindSpeedMPH,WindSpeedGustMPH,Humidity,HourlyPrecipIn,Conditions,Clouds,dailyrainin,SolarRadiationWatts/m^2,SoftwareType,DateUTC
2013-10-04 00:06:00,32.0,25.0,-100.00,NNW,348,19.0,30.0,75,0.00,,,0.00,0.000000,,2013-10-04 06:06:00,
2013-10-04 00:16:00,32.0,25.0,-100.00,NNW,348,19.0,30.0,75,0.00,,,0.00,0.000000,,2013-10-04 06:16:00,
2013-10-04 00:23:00,32.0,25.0,-100.00,NNW,348,19.0,30.0,75,0.00,,,0.00,0.000000,,2013-10-04 06:23:00,
2013-10-04 00:24:00,30.0,25.0,-100.00,NNW,337,11.0,26.0,81,0.00,,,-99.99,0.000000,,2013-10-04 06:24:00,
2013-10-04 00:57:00,30.0,25.0,-100.00,NNW,337,11.0,26.0,81,0.00,,,-99.99,0.000000,,2013-10-04 06:57:00,
2013-10-04 01:05:00,30.0,25.0,-100.00,NNW,337,11.0,26.0,81,0.00,,,-99.99,0.000000,,2013-10-04 07:05:00,
2013-10-04 01:15:00,30.0,25.0,-100.00,NNW,337,11.0,26.0,81,0.00,,,-99.99,0.000000,,2013-10-04 07:15:00,
2013-10-04 01:57:00,28.0,26.0,-100.00,North,8,7.0,20.0,93,0.00,,,0.00,0.000000,,2013-10-04 07:57:00,
2013-10-04 02:05:00,28.0,26.0,-100.00,North,8,7.0,20.0,93,0.00,,,0.00,0.000000,,2013-10-04 08:05:00,
2013-10-04 02:15:00,28.0,26.0,-100.00,North,8,7.0,20.0,93,0.00,,,0.00,0.000000,,2013-10-04 08:15:00,
2013-10-04 02:23:00,28.0,26.0,-100.00,North,8,7.0,20.0,93,0.00,,,0.00,0.000000,,2013-10-04 08:23:00,
2013-10-04 02:57:00,28.0,27.0,-100.00,East,86,5.0,10.0,94,0.00,,,0.00,0.000000,,2013-10-04 08:57:00,
2013-10-04 03:05:00,28.0,27.0,-100.00,East,86,5.0,10.0,94,0.00,,,0.00,0.000000,,2013-10-04 09:05:00,
2013-10-04 03:14:00,28.0,27.0,-100.00,East,86,5.0,10.0,94,0.00,,,0.00,0.000000,,2013-10-04 09:14:00,
2013-10-04 03:23:00,28.0,27.0,-100.00,East,86,5.0,10.0,94,0.00,,,0.00,0.000000,,2013-10-04 09:23:00,
2013-10-04 03:24:00,27.0,26.0,-100.00,NNE,17,3.0,8.0,94,0.00,,,0.00,0.000000,,2013-10-04 09:24:00,
2013-10-04 03:59:00,27.0,26.0,-100.00,NNE,17,3.0,8.0,94,0.00,,,0.00,0.000000,,2013-10-04 09:59:00,
2013-10-04 04:08:00,27.0,26.0,-100.00,NNE,17,3.0,8.0,94,0.00,,,0.00,0.000000,,2013-10-04 10:08:00,
2013-10-04 04:17:00,27.0,26.0,-100.00,NNE,17,3.0,8.0,94,0.00,,,0.00,0.000000,,2013-10-04 10:17:00,
2013-10-04 04:24:00,25.0,22.0,-100.00,North,1,5.0,12.0,90,0.00,,,0.00,0.000000,,2013-10-04 10:24:00,
2013-10-04 04:59:00,25.0,22.0,-100.00,North,1,5.0,12.0,90,0.00,,,0.00,0.000000,,2013-10-04 10:59:00,
2013-10-04 05:07:00,25.0,22.0,-100.00,North,1,5.0,12.0,90,0.00,,,0.00,0.000000,,2013-10-04 11:07:00,
2013-10-04 05:16:00,25.0,22.0,-100.00,North,1,5.0,12.0,90,0.00,,,0.00,0.000000,,2013-10-04 11:16:00,
2013-10-04 05:24:00,24.0,21.0,-100.00,North,352,6.0,10.0,88,0.00,,,0.00,0.000000,,2013-10-04 11:24:00,
2013-10-04 05:59:00,24.0,21.0,-100.00,North,352,6.0,10.0,88,0.00,,,0.00,0.000000,,2013-10-04 11:59:00,
2013-10-04 06:06:00,24.0,21.0,-100.00,North,352,6.0,10.0,88,0.00,,,0.00,0.000000,,2013-10-04 12:06:00,
2013-10-04 06:16:00,24.0,21.0,-100.00,North,352,6.0,10.0,88,0.00,,,0.00,0.000000,,2013-10-04 12:16:00,
2013-10-04 06:24:00,22.0,19.0,-100.00,NE,44,4.0,10.0,88,0.00,,,0.00,0.000000,,2013-10-04 12:24:00,
2013-10-04 06:59:00,22.0,19.0,-100.00,NE,44,4.0,10.0,88,0.00,,,0.00,0.000000,,2013-10-04 12:59:00,
2013-10-04 07:07:00,22.0,19.0,-100.00,NE,44,4.0,10.0,88,0.00,,,0.00,0.000000,,2013-10-04 13:07:00,
2013-10-04 07:16:00,22.0,19.0,-100.00,NE,44,4.0,10.0,88,0.00,,,0.00,0.000000,,2013-10-04 13:16:00,
2013-10-04 07:24:00,22.0,19.0,-100.00,North,11,3.0,11.0,87,0.00,,,0.00,0.000000,,2013-10-04 13:24:00,
2013-10-04 07:58:00,22.0,19.0,-100.00,North,11,3.0,11.0,87,0.00,,,0.00,0.000000,,2013-10-04 13:58:00,
2013-10-04 08:07:00,22.0,19.0,-100.00,North,11,3.0,11.0,87,0.00,,,0.00,0.000000,,2013-10-04 14:07:00,
2013-10-04 08:15:00,22.0,19.0,-100.00,North,11,3.0,11.0,87,0.00,,,0.00,0.000000,,2013-10-04 14:15:00,
2013-10-04 08:24:00,25.0,20.0,-100.00,North,356,8.0,12.0,82,0.00,,,0.00,36.000000,,2013-10-04 14:24:00,
2013-10-04 08:59:00,25.0,20.0,-100.00,North,356,8.0,12.0,82,0.00,,,0.00,36.000000,,2013-10-04 14:59:00,
2013-10-04 09:07:00,25.0,20.0,-100.00,North,356,8.0,12.0,82,0.00,,,0.00,36.000000,,2013-10-04 15:07:00,
2013-10-04 09:16:00,25.0,20.0,-100.00,North,356,8.0,12.0,82,0.00,,,0.00,36.000000,,2013-10-04 15:16:00,
2013-10-04 09:24:00,29.0,21.0,-100.00,NNE,17,6.0,15.0,73,0.00,,,0.00,142.000000,,2013-10-04 15:24:00,
2013-10-04 10:00:00,29.0,21.0,-100.00,NNE,17,6.0,15.0,73,0.00,,,0.00,142.000000,,2013-10-04 16:00:00,
2013-10-04 10:08:00,29.0,21.0,-100.00,NNE,17,6.0,15.0,73,0.00,,,0.00,142.000000,,2013-10-04 16:08:00,
2013-10-04 10:17:00,29.0,21.0,-100.00,NNE,17,6.0,15.0,73,0.00,,,0.00,142.000000,,2013-10-04 16:17:00,
2013-10-04 10:24:00,32.0,21.0,-100.00,NNE,16,8.0,18.0,63,0.05,,,0.05,412.000000,,2013-10-04 16:24:00,
2013-10-04 10:59:00,32.0,21.0,-100.00,NNE,16,8.0,18.0,63,0.05,,,0.05,412.000000,,2013-10-04 16:59:00,
2013-10-04 11:07:00,32.0,21.0,-100.00,NNE,16,8.0,18.0,63,0.05,,,0.05,412.000000,,2013-10-04 17:07:00,
2013-10-04 11:17:00,32.0,21.0,-100.00,NNE,16,8.0,18.0,63,0.05,,,0.05,412.000000,,2013-10-04 17:17:00,
2013-10-04 11:24:00,33.0,22.0,-100.00,North,9,9.0,20.0,63,0.00,,,0.05,691.000000,,2013-10-04 17:24:00,
2013-10-04 12:01:00,33.0,22.0,-100.00,North,9,9.0,20.0,63,0.00,,,0.05,691.000000,,2013-10-04 18:01:00,
2013-10-04 12:07:00,33.0,22.0,-100.00,North,9,9.0,20.0,63,0.00,,,0.05,691.000000,,2013-10-04 18:07:00,
2013-10-04 12:17:00,33.0,22.0,-100.00,North,9,9.0,20.0,63,0.00,,,0.05,691.000000,,2013-10-04 18:17:00,
2013-10-04 12:56:00,34.0,23.0,-100.00,North,353,13.0,20.0,63,0.01,,,0.06,862.000000,,2013-10-04 18:56:00,
2013-10-04 13:01:00,34.0,23.0,-100.00,North,353,13.0,20.0,63,0.01,,,0.06,862.000000,,2013-10-04 19:01:00,
2013-10-04 13:12:00,34.0,23.0,-100.00,North,353,13.0,20.0,63,0.01,,,0.06,862.000000,,2013-10-04 19:12:00,
2013-10-04 13:22:00,34.0,23.0,-100.00,North,353,13.0,20.0,63,0.01,,,0.06,862.000000,,2013-10-04 19:22:00,
2013-10-04 13:52:00,36.0,22.0,-100.00,North,355,13.0,22.0,57,0.00,,,0.06,888.000000,,2013-10-04 19:52:00,
2013-10-04 14:02:00,36.0,22.0,-100.00,North,355,13.0,22.0,57,0.00,,,0.06,888.000000,,2013-10-04 20:02:00,
2013-10-04 14:11:00,36.0,22.0,-100.00,North,355,13.0,22.0,57,0.00,,,0.06,888.000000,,2013-10-04 20:11:00,
2013-10-04 14:21:00,36.0,22.0,-100.00,North,355,13.0,22.0,57,0.00,,,0.06,888.000000,,2013-10-04 20:21:00,
2013-10-04 14:53:00,38.0,21.0,-100.00,NNW,347,12.0,20.0,50,0.00,,,0.06,953.000000,,2013-10-04 20:53:00,
2013-10-04 15:01:00,38.0,21.0,-100.00,NNW,347,12.0,20.0,50,0.00,,,0.06,953.000000,,2013-10-04 21:01:00,
2013-10-04 15:11:00,38.0,21.0,-100.00,NNW,347,12.0,20.0,50,0.00,,,0.06,953.000000,,2013-10-04 21:11:00,
2013-10-04 15:22:00,38.0,21.0,-100.00,NNW,347,12.0,20.0,50,0.00,,,0.06,953.000000,,2013-10-04 21:22:00,
2013-10-04 15:54:00,38.0,21.0,-100.00,NNW,348,13.0,21.0,50,0.00,,,0.06,851.000000,,2013-10-04 21:54:00,
2013-10-04 16:03:00,38.0,21.0,-100.00,NNW,348,13.0,21.0,50,0.00,,,0.06,851.000000,,2013-10-04 22:03:00,
2013-10-04 16:12:00,38.0,21.0,-100.00,NNW,348,13.0,21.0,50,0.00,,,0.06,851.000000,,2013-10-04 22:12:00,
2013-10-04 16:23:00,38.0,21.0,-100.00,NNW,348,13.0,21.0,50,0.00,,,0.06,851.000000,,2013-10-04 22:23:00,
2013-10-04 16:52:00,36.0,23.0,-100.00,North,358,11.0,21.0,60,0.00,,,0.06,648.000000,,2013-10-04 22:52:00,
2013-10-04 17:03:00,36.0,23.0,-100.00,North,358,11.0,21.0,60,0.00,,,0.06,648.000000,,2013-10-04 23:03:00,
2013-10-04 17:12:00,36.0,23.0,-100.00,North,358,11.0,21.0,60,0.00,,,0.06,648.000000,,2013-10-04 23:12:00,
2013-10-04 17:22:00,36.0,23.0,-100.00,North,358,11.0,21.0,60,0.00,,,0.06,648.000000,,2013-10-04 23:22:00,
2013-10-04 17:53:00,36.0,22.0,-100.00,North,356,12.0,19.0,57,0.00,,,0.06,527.000000,,2013-10-04 23:53:00,
2013-10-04 18:02:00,36.0,22.0,-100.00,North,356,12.0,19.0,57,0.00,,,0.06,527.000000,,2013-10-05 00:02:00,
2013-10-04 18:12:00,36.0,22.0,-100.00,North,356,12.0,19.0,57,0.00,,,0.06,527.000000,,2013-10-05 00:12:00,
2013-10-04 18:22:00,36.0,22.0,-100.00,North,356,12.0,19.0,57,0.00,,,0.06,527.000000,,2013-10-05 00:22:00,
2013-10-04 18:52:00,34.0,21.0,-100.00,North,6,8.0,21.0,59,0.00,,,-99.99,188.000000,,2013-10-05 00:52:00,
2013-10-04 19:02:00,34.0,21.0,-100.00,North,6,8.0,21.0,59,0.00,,,-99.99,188.000000,,2013-10-05 01:02:00,
2013-10-04 19:11:00,34.0,21.0,-100.00,North,6,8.0,21.0,59,0.00,,,-99.99,188.000000,,2013-10-05 01:11:00,
2013-10-04 19:21:00,34.0,21.0,-100.00,North,6,8.0,21.0,59,0.00,,,-99.99,188.000000,,2013-10-05 01:21:00,
2013-10-04 19:52:00,30.0,21.0,-100.00,North,356,11.0,19.0,70,0.00,,,0.06,13.000000,,2013-10-05 01:52:00,
2013-10-04 20:02:00,30.0,21.0,-100.00,North,356,11.0,19.0,70,0.00,,,0.06,13.000000,,2013-10-05 02:02:00,
2013-10-04 20:11:00,30.0,21.0,-100.00,North,356,11.0,19.0,70,0.00,,,0.06,13.000000,,2013-10-05 02:11:00,
2013-10-04 20:22:00,30.0,21.0,-100.00,North,356,11.0,19.0,70,0.00,,,0.06,13.000000,,2013-10-05 02:22:00,
2013-10-04 20:52:00,29.0,21.0,-100.00,NNE,20,6.0,18.0,72,0.00,,,0.06,0.000000,,2013-10-05 02:52:00,
2013-10-04 21:02:00,29.0,21.0,-100.00,NNE,20,6.0,18.0,72,0.00,,,0.06,0.000000,,2013-10-05 03:02:00,
2013-10-04 21:12:00,29.0,21.0,-100.00,NNE,20,6.0,18.0,72,0.00,,,0.06,0.000000,,2013-10-05 03:12:00,
2013-10-04 21:22:00,29.0,21.0,-100.00,NNE,20,6.0,18.0,72,0.00,,,0.06,0.000000,,2013-10-05 03:22:00,
2013-10-04 21:24:00,27.0,22.0,-100.00,North,354,5.0,10.0,80,0.00,,,0.06,0.000000,,2013-10-05 03:24:00,
2013-10-04 21:55:00,27.0,22.0,-100.00,North,354,5.0,10.0,80,0.00,,,0.06,0.000000,,2013-10-05 03:55:00,
2013-10-04 22:04:00,27.0,22.0,-100.00,North,354,5.0,10.0,80,0.00,,,0.06,0.000000,,2013-10-05 04:04:00,
2013-10-04 22:14:00,27.0,22.0,-100.00,North,354,5.0,10.0,80,0.00,,,0.06,0.000000,,2013-10-05 04:14:00,
2013-10-04 22:53:00,27.0,22.0,-100.00,North,356,8.0,13.0,81,0.00,,,0.06,0.000000,,2013-10-05 04:53:00,
2013-10-04 23:04:00,27.0,22.0,-100.00,North,356,8.0,13.0,81,0.00,,,0.06,0.000000,,2013-10-05 05:04:00,
2013-10-04 23:13:00,27.0,22.0,-100.00,North,356,8.0,13.0,81,0.00,,,0.06,0.000000,,2013-10-05 05:13:00,
2013-10-04 23:22:00,27.0,22.0,-100.00,North,356,8.0,13.0,81,0.00,,,0.06,0.000000,,2013-10-05 05:22:00,
2013-10-04 23:52:00,26.0,20.0,-100.00,North,359,10.0,22.0,78,0.00,,,0.06,0.000000,,2013-10-05 05:52:00,